Regional Weather Roundup
Issued by NWS

Home | Current Version | Previous Version | Graphics & Text | Print | Product List | Glossary On
Versions: 1 2 3 4 5 6 7 8 9 10 11 12 13 14 15 16 17 18 19 20 21 22 23 24 25 26 27 28 29 30 31 32 33 34 35 36 37 38 39 40 41 42 43 44 45 46 47 48 49 50
000
ASUS43 KBIS 260410
RWRND

NORTH DAKOTA REGIONAL WEATHER ROUNDUP
NATIONAL WEATHER SERVICE BISMARCK ND
1100 PM CDT SAT APR 25 2015

NOTE: "FAIR" INDICATES FEW OR NO CLOUDS BELOW 12,000 FEET WITH NO
SIGNIFICANT WEATHER AND/OR OBSTRUCTIONS TO VISIBILITY.


NDZ001>003-009>011-017-260500-
NORTHWEST NORTH DAKOTA

CITY           SKY/WX    TMP DP  RH WIND       PRES   REMARKS
WILLISTON      CLOUDY    47  45  93 SW6       29.84R
MINOT          CLOUDY    49  40  71 SE12      29.90R
MINOT AFB      CLOUDY    48  48 100 SE13      29.89R
$$

NDZ018>021-031>035-040>046-260500-
SOUTHWEST NORTH DAKOTA

CITY           SKY/WX    TMP DP  RH WIND       PRES   REMARKS
BISMARCK       CLOUDY    49  43  80 SE8       29.92R
DICKINSON      CLOUDY    47  45  93 S9        29.85R FOG
GARRISON         N/A     47  42  83 SE12      29.89R
HETTINGER ARPT CLOUDY    47  45  93 SE5       29.88R FOG
$$

NDZ004>008-012>016-024-026-027-054-260500-
NORTHEAST NORTH DAKOTA

CITY           SKY/WX    TMP DP  RH WIND       PRES   REMARKS
GRAND FORKS    CLEAR     51  33  50 SE7       29.96R
GRND FRKS AFB  CLEAR     42  35  76 SE1       29.96R
DEVILS LAKE    CLOUDY    46  39  76 SE7       29.94S
$$

NDZ022-023-025-028>030-036>039-047>053-260500-
SOUTHEAST NORTH DAKOTA

CITY           SKY/WX    TMP DP  RH WIND       PRES   REMARKS
FARGO          CLEAR     48  31  51 SE8       29.97R
JAMESTOWN      CLOUDY    49  40  71 SE7       29.95R
$$



USA.gov is the U.S. government's official web portal to all federal, state and local government web resources and services.